Tracking 25656 objects as of 21-May-2022
HD Live streaming from Space Station
objects crossing your sky now

ORBCOMM FM 4

Track ORBCOMM FM 4 now!
10-day predictions
ORBCOMM FM 4 is classified as:


NORAD ID: 25159
Int'l Code: 1998-007C
Perigee: 766.6 km
Apogee: 829.1 km
Inclination: 108.0 °
Period: 100.7 minutes
Semi major axis: 7168 km
RCS: 1.0023 m2 (large)
Launch date: February 10, 1998
Source: ORBCOMM (ORB)
Launch site: AIR FORCE WESTERN TEST RANGE (AFWTR)
aabbcc
Your satellite tracking list
Your tracking list is empty




NASA's NSSDC Master Catalog

Two Line Element Set (TLE):
1 25159U 98007C   22141.58362443  .00000984  00000-0  42486-3 0  9999
2 25159 107.9912   0.6205 0043610  39.4177 321.0121 14.30311298263510
Source of the keplerian elements: AFSPC